Weather History for Lawrence, KS

Change the Weather History Date:

Tuesday, September 17, 2013

  Actual Average Record
Temperature  
Mean Temperature 70 °F 68 °F  
Max Temperature 77 °F 81 °F 93 °F (2000)
Min Temperature 62 °F 54 °F 46 °F (2000)
Degree Days  
Heating Degree Days 0 2  
Month to date heating degree days 3 13  
Since 1 July heating degree days 3 16  
Cooling Degree Days 5 4  
Month to date cooling degree days 180 112  
Year to date cooling degree days 1401 1303  
Growing Degree Days 18 (Base 50)    
Moisture  
Dew Point 64 °F    
Average Humidity 84    
Maximum Humidity 93    
Minimum Humidity 74    
Precipitation  
Precipitation 0.90 in 0.11 in 1.48 in (2001)
Month to date precipitation 1.75 2.51  
Year to date precipitation 22.03 30.37  
Sea Level Pressure  
Sea Level Pressure 30.08 in    
Wind  
Wind Speed 8 mph (SE)    
Max Wind Speed 21 mph    
Max Gust Speed 25 mph    
Visibility 5 miles    
Events Rain , Thunderstorm    
T = Trace of Precipitation, MM = Missing Value Source: NWS Daily Summary

Daily Weather History Graph

Daily Weather History Graph

Search for Another Location

Airport:

Trip Planner

Search our weather history database for the weather conditions in past years. The results will help you decide how hot, cold, wet, or windy it might be!

Date:

Astronomy

Sep. 17, 2013 Rise Set
Actual Time 7:04 AM CDT 7:25 PM CDT
Civil Twilight 6:37 AM CDT 7:52 PM CDT
Nautical Twilight 6:06 AM CDT 8:23 PM CDT
Astronomical Twilight 5:34 AM CDT 8:55 PM CDT
Moon 6:12 PM CDT (9/17) 5:00 AM CDT (9/17)
Length of Visible Light 13h 14m
Length of Day
12h 21m
Waxing Gibbous, 96% of the Moon is Illuminated
Sep 17
Waxing Gibbous
Sep 19
Full
Sep 26
Last Quarter
Oct 4
New
Oct 11
First Quarter

Hourly Weather History & Observations

Time (CDT) Temp. Dew Point Humidity Pressure Visibility Wind Dir Wind Speed Gust Speed Precip Events Conditions
12:52 AM 62.1 °F 60.1 °F 93% 30.19 in 5.0 mi ESE 3.5 mph - N/A   Overcast
1:52 AM 63.0 °F 60.1 °F 90% 30.18 in 5.0 mi ESE 4.6 mph - N/A   Overcast
2:52 AM 63.0 °F 60.1 °F 90% 30.16 in 5.0 mi ESE 5.8 mph - N/A   Overcast
3:52 AM 63.0 °F 60.1 °F 90% 30.14 in 4.0 mi ESE 5.8 mph - 0.00 in Rain Light Rain
4:52 AM 63.0 °F 60.1 °F 90% 30.13 in 4.0 mi ESE 4.6 mph - 0.00 in   Overcast
5:52 AM 63.0 °F 61.0 °F 93% 30.12 in 2.5 mi ESE 6.9 mph - 0.09 in Rain Light Rain
6:03 AM 62.6 °F 60.8 °F 94% 30.13 in 3.0 mi ESE 4.6 mph - 0.00 in Rain Light Rain
6:52 AM 63.0 °F 61.0 °F 93% 30.13 in 2.5 mi SE 4.6 mph - 0.05 in Rain Rain
7:13 AM 62.6 °F 60.8 °F 94% 30.16 in 2.0 mi SSE 3.5 mph - 0.07 in Rain , Thunderstorm Light Rain
7:32 AM 62.6 °F 62.6 °F 100% 30.16 in 1.2 mi SSE 4.6 mph - 0.23 in Rain , Thunderstorm Heavy Thunderstorms and Rain
7:52 AM 63.0 °F 61.0 °F 93% 30.15 in 1.8 mi SSE 5.8 mph - 0.31 in Rain , Thunderstorm Rain
8:04 AM 62.6 °F 60.8 °F 94% 30.16 in 2.0 mi SE 4.6 mph - 0.04 in Rain Rain
8:15 AM 62.6 °F 62.6 °F 100% 30.17 in 1.8 mi SE 3.5 mph - 0.09 in Rain Rain
8:31 AM 62.6 °F 62.6 °F 100% 30.16 in 2.0 mi East 3.5 mph - 0.15 in Rain Rain
8:41 AM 62.6 °F 62.6 °F 100% 30.16 in 1.2 mi ESE 3.5 mph - 0.18 in Rain Light Rain
8:52 AM 63.0 °F 62.1 °F 97% 30.14 in 1.0 mi ESE 4.6 mph - 0.22 in Rain Rain
9:52 AM 64.0 °F 62.1 °F 93% 30.15 in 1.8 mi SSE 4.6 mph - 0.16 in Rain Light Rain
10:05 AM 64.4 °F 62.6 °F 94% 30.15 in 2.0 mi SE 5.8 mph - 0.02 in Rain Light Rain
10:21 AM 64.4 °F 62.6 °F 94% 30.15 in 2.5 mi SSE 5.8 mph - 0.03 in Rain Light Rain
10:28 AM 64.4 °F 62.6 °F 94% 30.15 in 3.0 mi SSE 6.9 mph - 0.03 in Rain Light Rain
10:39 AM 64.4 °F 62.6 °F 94% 30.14 in 2.0 mi SSE 9.2 mph - 0.05 in Rain Rain
10:49 AM 64.4 °F 62.6 °F 94% 30.13 in 3.0 mi SSE 10.4 mph - 0.05 in Rain Light Rain
10:52 AM 64.9 °F 63.0 °F 93% 30.12 in 3.0 mi SE 9.2 mph - 0.05 in Rain Light Rain
11:33 AM 68.0 °F 64.4 °F 88% 30.12 in 5.0 mi SSE 10.4 mph - 0.01 in Rain Light Rain
11:52 AM 69.1 °F 66.0 °F 90% 30.11 in 7.0 mi SSE 9.2 mph - 0.01 in   Overcast
12:17 PM 71.6 °F 66.2 °F 83% 30.11 in 8.0 mi SE 11.5 mph - N/A   Mostly Cloudy
12:52 PM 73.0 °F 66.9 °F 81% 30.09 in 10.0 mi SSE 12.7 mph - N/A   Mostly Cloudy
1:52 PM 75.9 °F 66.9 °F 74% 30.06 in 10.0 mi South 13.8 mph - 0.01 in   Scattered Clouds
2:36 PM 73.4 °F 66.2 °F 78% 30.07 in 10.0 mi South 15.0 mph 24.2 mph N/A   Mostly Cloudy
2:49 PM 73.4 °F 66.2 °F 78% 30.06 in 9.0 mi SSE 15.0 mph - N/A   Overcast
2:52 PM 73.9 °F 66.0 °F 76% 30.05 in 9.0 mi SSE 16.1 mph - N/A   Overcast
3:05 PM 73.4 °F 66.2 °F 78% 30.05 in 8.0 mi SSE 15.0 mph - N/A   Overcast
3:52 PM 73.9 °F 66.0 °F 76% 30.02 in 8.0 mi SSE 11.5 mph - N/A   Mostly Cloudy
4:14 PM 73.4 °F 66.2 °F 78% 30.02 in 8.0 mi South 11.5 mph - N/A   Overcast
4:52 PM 75.0 °F 66.0 °F 73% 29.99 in 8.0 mi SSE 13.8 mph - N/A   Mostly Cloudy
5:52 PM 73.9 °F 66.9 °F 79% 29.97 in 8.0 mi SSE 11.5 mph - N/A   Overcast
6:52 PM 73.0 °F 66.0 °F 79% 29.96 in 8.0 mi SSE 10.4 mph - N/A   Overcast
7:23 PM 71.6 °F 66.2 °F 83% 29.96 in 7.0 mi SE 11.5 mph - N/A   Partly Cloudy
7:52 PM 70.0 °F 66.0 °F 87% 29.96 in 7.0 mi SE 8.1 mph - N/A   Clear
8:11 PM 69.8 °F 66.2 °F 88% 29.98 in 7.0 mi SSE 8.1 mph - N/A   Mostly Cloudy
8:44 PM 69.8 °F 66.2 °F 88% 29.99 in 6.0 mi SE 6.9 mph - N/A   Scattered Clouds
8:52 PM 69.1 °F 66.0 °F 90% 29.98 in 6.0 mi SE 8.1 mph - N/A   Partly Cloudy
9:06 PM 69.8 °F 66.2 °F 88% 29.99 in 6.0 mi SE 6.9 mph - N/A   Mostly Cloudy
9:39 PM 69.8 °F 66.2 °F 88% 30.00 in 5.0 mi SE 8.1 mph - N/A   Scattered Clouds
9:52 PM 68.0 °F 66.0 °F 93% 29.99 in 5.0 mi SE 6.9 mph - N/A   Scattered Clouds
10:52 PM 68.0 °F 66.0 °F 93% 29.98 in 4.0 mi SE 5.8 mph - N/A   Clear
11:52 PM 66.9 °F 64.9 °F 93% 29.97 in 4.0 mi ESE 5.8 mph - N/A   Clear